Terminal Aerodrome Forecast
Issued by NWS Wakefield, VA

Home | Current Version | Previous Version | Text Only | Print | Product List | Glossary On
Versions: 1 2 3 4 5 6 7 8 9 10 11 12 13 14 15 16 17 18 19 20 21 22 23 24
370
FTUS41 KAKQ 041524 AAA
TAFORF
TAF AMD
KORF 041524Z 0415/0512 04008KT P6SM OVC004
     FM041700 02004KT P6SM OVC008
     FM041900 02005KT P6SM SCT010 BKN025
     FM042100 02006KT P6SM BKN050
     FM050400 04004KT 2SM BR OVC007=

USA.gov is the U.S. government's official web portal to all federal, state and local government web resources and services.